Hourly Data Report for October 27, 2014

All times are specified in Local Standard Time (LST). Add 1 hour to adjust for Daylight Saving Time where and when it is observed.

KUGAARUK CLIMATE
NUNAVUT

68°32'15.060" N
89°47'47.020" W
15.80 m
2303094
71407
NBB

Download Data

Hourly Data (October 2014)
Hourly Data Report for October 27, 2014
Temp Definition
°C
Dew Point Temp Definition
°C
Rel Hum Definition
%
Wind Dir Definition
10's deg

Wind Spd Definition
km/h
Visibility Definition
km
Stn Press Definition
kPa
Hmdx Definition


Wind Chill Definition


Weather Definition


TIME
00:00 -8.6 -9.8 91 6 11   101.34   -14 LegendNANA
01:00 -8.8 -9.9 91 5 11   101.37   -14 LegendNANA
02:00 -9.4 -10.6 91 6 8   101.37   -14 LegendNANA
03:00 -10.4 -11.5 91 3 2   101.38   -12 LegendNANA
04:00 -11.4 -12.6 91 6 6   101.39   -15 LegendNANA
05:00 -11.9 -13.1 90 6 7   101.38   -16 LegendNANA
06:00 -12.2 -13.6 90 7 3   101.40   -14 LegendNANA
07:00 -13.3 -14.8 88 9 7   101.40   -18 LegendNANA
08:00 -14.8 -16.4 88 8 5   101.39   -18 LegendNANA
09:00 -15.3 -16.8 88 7 1   101.41   -16 LegendNANA
10:00 -15.3 -17.1 86   0   101.43     LegendNANA
11:00 -13.6 -14.9 90 0 1   101.43   -14 LegendNANA
12:00 -12.5 -13.7 90 25 7   101.42   -17 LegendNANA
13:00 -11.9 -13.1 90 28 4   101.42   -14 LegendNANA
14:00 -13.5 -14.9 89 3 2   101.43   -15 LegendNANA
15:00 -11.3 -12.5 91 26 9   101.41   -16 LegendNANA
16:00 -11.0 -12.2 91 26 14   101.42   -18 LegendNANA
17:00 -11.0 -12.2 91 26 8   101.42   -16 LegendNANA
18:00 -11.1 -12.3 91 26 9   101.41   -16 LegendNANA
19:00 -10.8 -12.0 91 27 13   101.41   -17 LegendNANA
20:00 -10.7 -11.9 91 25 13   101.38   -17 LegendNANA
21:00 -11.2 -12.4 91 24 5   101.37   -14 LegendNANA
22:00 -10.4 -11.6 91 26 13   101.36   -17 LegendNANA
23:00 -9.9 -11.0 91 26 10   101.37   -15 LegendNANA

Notes on Data Quality.

Legend

  • E = Estimated
  • M = Missing
  • NA = Not Available
  • ‡ = Partner data that is not subject to review by the National Climate Archives
Date modified: